Weather History for Darwin Airport, Northern Territory

Change the Weather History Date:

Thursday, November 14, 2013

  Actual Average Record
Temperature  
Mean Temperature 83 °F -  
Max Temperature 93 °F 92 °F - ()
Min Temperature 73 °F 78 °F - ()
Cooling Degree Days 18    
Growing Degree Days 33 (Base 50)    
Moisture  
Dew Point 74 °F    
Average Humidity 77    
Maximum Humidity 100    
Minimum Humidity 40    
Precipitation  
Precipitation 0.47 in 0.24 in - ()
Sea Level Pressure  
Sea Level Pressure 29.80 in    
Wind  
Wind Speed 9 mph ()    
Max Wind Speed 24 mph    
Max Gust Speed 33 mph    
Visibility 8.1 miles    
Events Rain , Thunderstorm    
T = Trace of Precipitation, MM = Missing Value Source: Averaged Metar Reports

Daily Weather History Graph

Daily Weather History Graph

Search for Another Location

Airport:

Trip Planner

Search our weather history database for the weather conditions in past years. The results will help you decide how hot, cold, wet, or windy it might be!

Date:

Astronomy

Nov. 14, 2013 Rise Set
Actual Time 6:10 AM ACST 6:51 PM ACST
Civil Twilight 5:48 AM ACST 7:13 PM ACST
Nautical Twilight 5:21 AM ACST 7:40 PM ACST
Astronomical Twilight 4:55 AM ACST 8:06 PM ACST
Moon 4:01 PM ACST (11/14) 3:26 AM ACST (11/14)
Length of Visible Light 13h 25m
Length of Day
12h 40m
Waxing Gibbous, 87% of the Moon is Illuminated
Nov 14
Waxing Gibbous
Nov 18
Full
Nov 26
Last Quarter
Dec 3
New
Dec 10
First Quarter

Hourly Weather History & Observations

Time (ACST) Temp. Heat Index Dew Point Humidity Pressure Visibility Wind Dir Wind Speed Gust Speed Precip Events Conditions
12:00 AM 81 °F - 75 °F 77% 29.81 in 19 mi ENE 4.6 mph - - Thunderstorm Thunderstorm
12:00 AM 80.6 °F 86.2 °F 75.2 °F 84% 29.80 in 6.2 mi ENE 4.6 mph - N/A Thunderstorm Thunderstorm
12:15 AM 80.6 °F 86.2 °F 75.2 °F 84% 29.83 in 6.2 mi NNE 17.3 mph - N/A Rain , Thunderstorm Light Thunderstorms and Rain
12:17 AM 78.8 °F - 75.2 °F 89% 29.83 in 3.7 mi NNE 16.1 mph - N/A Rain , Thunderstorm Thunderstorms and Rain
12:30 AM 76 °F - 74 °F 94% 29.84 in - WNW 8.1 mph - -  
12:30 AM 75.2 °F - 75.2 °F 100% 29.83 in 1.2 mi WNW 8.1 mph - N/A Rain , Thunderstorm Thunderstorms and Rain
12:43 AM 75.2 °F - 75.2 °F 100% 29.83 in 6.2 mi South 12.7 mph - N/A Rain , Thunderstorm Light Thunderstorms and Rain
1:00 AM 75.2 °F - 75.2 °F 100% 29.83 in 6.2 mi SE 18.4 mph - N/A Rain , Thunderstorm Light Thunderstorms and Rain
1:06 AM 75.2 °F - 73.4 °F 94% 29.86 in 1.9 mi SE 16.1 mph - N/A Rain , Thunderstorm Heavy Thunderstorms and Rain
1:30 AM 73.4 °F - 73.4 °F 100% 29.86 in 6.2 mi South 13.8 mph - N/A Rain , Thunderstorm Light Thunderstorms and Rain
1:49 AM 73.4 °F - 73.4 °F 100% 29.86 in 2.5 mi South 9.2 mph - N/A Rain , Thunderstorm Heavy Thunderstorms and Rain
2:00 AM 73.4 °F - 73.4 °F 100% 29.83 in 5.0 mi SSE 12.7 mph - N/A Rain , Thunderstorm Thunderstorms and Rain
2:12 AM 73.4 °F - 71.6 °F 94% 29.83 in 6.2 mi SSE 15.0 mph - N/A Rain , Thunderstorm Light Rain
2:30 AM 73.4 °F - 73.4 °F 100% 29.80 in 6.2 mi SSE 10.4 mph - N/A Rain Light Rain
3:00 AM 74 °F - 73 °F 96% 29.79 in 19 mi SSE 13.8 mph - -   Scattered Clouds
3:00 AM 73.4 °F - 73.4 °F 100% 29.80 in 6.2 mi SSE 13.8 mph - N/A   Mostly Cloudy
3:30 AM 74 °F - 72 °F 90% 29.79 in - SE 8.1 mph - -  
3:30 AM 75.2 °F - 71.6 °F 89% 29.77 in - SE 8.1 mph - N/A   Clear
4:00 AM 73.4 °F - 71.6 °F 94% 29.77 in - SE 11.5 mph - N/A   Clear
4:30 AM 73.4 °F - 71.6 °F 94% 29.77 in - SSE 8.1 mph - N/A   Clear
5:00 AM 73.4 °F - 73.4 °F 100% 29.77 in - SSE 8.1 mph - N/A   Clear
5:30 AM 73.4 °F - 73.4 °F 100% 29.77 in - SE 6.9 mph - N/A   Clear
6:00 AM 74 °F - 72 °F 94% 29.80 in 19 mi ESE 6.9 mph - -   Scattered Clouds
6:00 AM 73.4 °F - 73.4 °F 100% 29.80 in - ESE 6.9 mph - N/A   Clear
6:30 AM 74 °F - 73 °F 94% 29.81 in - SE 8.1 mph - -  
6:30 AM 75.2 °F - 73.4 °F 94% 29.80 in - SE 8.1 mph - N/A   Clear
7:00 AM 77.0 °F - 71.6 °F 83% 29.83 in - ESE 6.9 mph - N/A   Clear
7:30 AM 77.0 °F - 71.6 °F 83% 29.83 in - East 6.9 mph - N/A   Clear
8:00 AM 78.8 °F - 71.6 °F 78% 29.83 in - East 8.1 mph - N/A   Clear
8:30 AM 80.6 °F 84.6 °F 71.6 °F 74% 29.83 in - East 8.1 mph - N/A   Clear
9:00 AM 83 °F - 72 °F 62% 29.84 in 19 mi ENE 11.5 mph - -   Partly Cloudy
9:00 AM 82.4 °F 87.2 °F 71.6 °F 70% 29.83 in - ENE 11.5 mph - N/A   Clear
9:30 AM 84 °F - 74 °F 65% 29.86 in - ESE 8.1 mph - -  
9:30 AM 84.2 °F 90.9 °F 73.4 °F 70% 29.86 in 6.2 mi ESE 8.1 mph - N/A   Mostly Cloudy
10:00 AM 86.0 °F 95.1 °F 75.2 °F 70% 29.83 in 6.2 mi ENE 10.4 mph - N/A   Mostly Cloudy
10:30 AM 86.0 °F 95.1 °F 75.2 °F 70% 29.83 in 6.2 mi ENE 10.4 mph - N/A   Mostly Cloudy
11:00 AM 87.8 °F 97.6 °F 75.2 °F 66% 29.83 in 6.2 mi NE 11.5 mph - N/A   Mostly Cloudy
11:30 AM 89.6 °F 102.2 °F 77.0 °F 66% 29.83 in 6.2 mi ENE 8.1 mph - N/A   Mostly Cloudy
12:00 PM 89 °F - 74 °F 54% 29.83 in 19 mi ENE 8.1 mph - -   Partly Cloudy
12:00 PM 89.6 °F 99.8 °F 75.2 °F 62% 29.83 in 6.2 mi ENE 8.1 mph - N/A   Mostly Cloudy
12:30 PM 90 °F - 73 °F 49% 29.81 in - North 8.1 mph - -  
12:30 PM 89.6 °F 98.2 °F 73.4 °F 59% 29.80 in 6.2 mi North 8.1 mph - N/A   Mostly Cloudy
1:00 PM 87.8 °F 95.6 °F 73.4 °F 62% 29.80 in 6.2 mi North 10.4 mph - N/A   Mostly Cloudy
1:30 PM 89.6 °F 99.8 °F 75.2 °F 62% 29.77 in 6.2 mi North 8.1 mph - N/A   Mostly Cloudy
2:00 PM 89.6 °F 99.8 °F 75.2 °F 62% 29.77 in 6.2 mi NNE 9.2 mph - N/A   Mostly Cloudy
2:30 PM 91.4 °F 100.1 °F 73.4 °F 55% 29.74 in 6.2 mi North 10.4 mph - N/A   Mostly Cloudy
3:00 PM 91 °F - 73 °F 47% 29.75 in 19 mi North 6.9 mph - -   Scattered Clouds
3:00 PM 91.4 °F 100.1 °F 73.4 °F 55% 29.74 in 6.2 mi North 6.9 mph - N/A   Mostly Cloudy
3:30 PM 92 °F - 71 °F 40% 29.73 in - ENE 8.1 mph - -  
3:30 PM 91.4 °F 98.4 °F 71.6 °F 52% 29.74 in 6.2 mi ENE 8.1 mph - N/A   Mostly Cloudy
4:00 PM 93.2 °F 98.8 °F 69.8 °F 46% 29.71 in 6.2 mi NE 8.1 mph - N/A   Mostly Cloudy
4:30 PM 89.6 °F 98.2 °F 73.4 °F 59% 29.71 in 6.2 mi West 11.5 mph - N/A   Mostly Cloudy
5:00 PM 87.8 °F 95.6 °F 73.4 °F 62% 29.71 in 6.2 mi SSW 10.4 mph - N/A   Mostly Cloudy
5:30 PM 89.6 °F 98.2 °F 73.4 °F 59% 29.74 in 6.2 mi WSW 9.2 mph - N/A   Mostly Cloudy
6:00 PM 89 °F - 74 °F 54% 29.75 in 19 mi WSW 8.1 mph - -   Scattered Clouds
6:00 PM 87.8 °F 97.6 °F 75.2 °F 66% 29.74 in 6.2 mi WSW 8.1 mph - N/A   Mostly Cloudy
6:30 PM 88 °F - 75 °F 58% 29.75 in - WSW 8.1 mph - -  
6:30 PM 87.8 °F 97.6 °F 75.2 °F 66% 29.74 in 6.2 mi WSW 8.1 mph - N/A   Mostly Cloudy
7:00 PM 86.0 °F 95.1 °F 75.2 °F 70% 29.77 in - WSW 6.9 mph - N/A   Clear
7:30 PM 86.0 °F 93.4 °F 73.4 °F 66% 29.77 in - SW 6.9 mph - N/A   Clear
8:00 PM 84.2 °F 92.3 °F 75.2 °F 74% 29.80 in - WSW 5.8 mph - N/A   Clear
8:30 PM 84.2 °F 92.3 °F 75.2 °F 74% 29.80 in - WNW 5.8 mph - N/A   Clear
9:00 PM 84 °F - 78 °F 76% 29.81 in 19 mi NW 5.8 mph - -   Scattered Clouds
9:00 PM 84.2 °F 94.1 °F 77.0 °F 79% 29.80 in - NW 5.8 mph - N/A   Clear
9:30 PM 84 °F - 76 °F 71% 29.81 in - North 11.5 mph - -  
9:30 PM 84.2 °F 94.1 °F 77.0 °F 79% 29.80 in - North 11.5 mph - N/A   Clear
10:00 PM 84.2 °F 94.1 °F 77.0 °F 79% 29.80 in 6.2 mi North 12.7 mph - N/A   Scattered Clouds
10:30 PM 84.2 °F 94.1 °F 77.0 °F 79% 29.83 in 6.2 mi North 18.4 mph - N/A   Scattered Clouds
11:00 PM 84.2 °F 94.1 °F 77.0 °F 79% 29.83 in 6.2 mi North 17.3 mph - N/A   Partly Cloudy
11:30 PM 84.2 °F 94.1 °F 77.0 °F 79% 29.83 in 6.2 mi North 10.4 mph - N/A   Partly Cloudy
11:39 PM 80.6 °F 85.4 °F 73.4 °F 79% 29.86 in 6.2 mi NE 24.2 mph - N/A Rain , Thunderstorm Light Thunderstorms and Rain
11:43 PM 78.8 °F - 71.6 °F 78% 29.86 in 6.2 mi NE 21.9 mph 33.4 mph N/A Rain , Thunderstorm Light Thunderstorms and Rain